[[{"header":{"parameterUnit":"m.s-1","parameterCategory":1,"la1":30.2991,"la2":30.254,"lo1":-89.0895,"lo2":-89.0444,"dy":0.0017,"dx":0.0017,"nx":28,"ny":28,"refTime":"2024-04-21T09:00:00:Z","depth":0,"parameterNumber":2,"parameterNumberName":"U-component_of_WINDS"},"data":[0,0,0,0,0,0,0,0,0,0,0,0,0,0,0,0,0,0,0,0,0,0,0,0,0,0,0,0,0,0,0,0,0,0,0,0,0,0,0,0,0,0,0,0,0,0,0,0,0,0,0,0,0,0,0,0,0,0,0.3887,0.3887,0,0.3876,0.3876,0.3876,0.3884,0.3885,0.3885,0.3885,0.3872,0.3871,0.3871,0,0,0,0,0,0,0,0,0,0,0,0,0,0.3914,0.3914,0.3887,0.3887,0.3887,0.3876,0.3876,0.3876,0.3884,0.3885,0.3885,0.3886,0.3872,0.3872,0.3871,0,0,0,0,0,0,0,0,0,0,0,0,0,0.3903,0.3913,0.3887,0.389,0.389,0.3876,0.3876,0.3876,0.3884,0.3885,0.3885,0.3886,0.3873,0.3872,0.3871,0.3853,0,0,0.3867,0.3867,0,0,0,0,0,0,0,0,0.3903,0.3902,0.389,0.389,0.389,0.3882,0.3881,0.3868,0.3884,0.3886,0.3885,0.3886,0.3875,0.3874,0.387,0.3853,0.3852,0.3867,0.3867,0.3866,0.3866,0,0,0,0,0,0,0,0.3904,0.3902,0.3883,0.3889,0.389,0.3891,0.389,0.3879,0.3878,0.3886,0.3887,0.3885,0.3875,0.3871,0.387,0.3852,0.3867,0.3866,0.3866,0.3865,0.382,0.382,0,0,0,0,0,0,0.3905,0.3903,0.3883,0.3883,0.3898,0.389,0.3889,0.3884,0.3878,0.3877,0.3885,0.3886,0.3873,0.3871,0.387,0.3849,0.3866,0.3865,0.3865,0.3821,0.382,0.382,0,0,0,0,0,0,0.3905,0.3903,0.3884,0.3893,0.3891,0.3889,0.3884,0.3884,0.388,0.3877,0.3877,0.3881,0.3873,0.3871,0.3858,0.3849,0.3865,0.3864,0.3822,0.3821,0.382,0.3809,0,0,0,0,0,0,0.3906,0.3903,0.3897,0.3893,0.389,0.3872,0.3883,0.3883,0.3878,0.3879,0.3874,0.3873,0.3874,0.3859,0.3857,0.3848,0.3863,0.3822,0.3821,0.382,0.381,0.3807,0.3805,0,0,0,0,0,0.3907,0.3893,0.3896,0.3894,0.3882,0.3872,0.387,0.3871,0.3878,0.3871,0.3869,0.3873,0.3851,0.3858,0.3855,0.3846,0.3823,0.3822,0.382,0.3811,0.3808,0.3806,0,0,0,0,0,0,0.3895,0.3893,0.3896,0.3881,0.3876,0.3873,0.3864,0.3868,0.3861,0.3863,0.3864,0.3863,0.3849,0.3846,0.3854,0.3829,0.3838,0.3836,0.3831,0.3829,0.3827,0.3827,0.3862,0,0,0,0,0,0.3891,0.3883,0.3881,0.3868,0.3866,0.3866,0.3861,0.3863,0.3858,0.3856,0.3853,0.3848,0.384,0.3834,0.3826,0.381,0.3809,0.3802,0.38,0.3798,0.3796,0.3788,0.3785,0.3815,0.3815,0.3816,0,0,0.3882,0.3879,0.3874,0.3865,0.3862,0.3854,0.3864,0.3854,0.3848,0.3854,0.3841,0.3839,0.3834,0.3819,0.3812,0.3816,0.3788,0.3797,0.3795,0.3794,0.3786,0.3783,0.3781,0.3815,0.3815,0.3815,0,0,0.386,0.3858,0.3847,0.3844,0.384,0.384,0.3837,0.3834,0.3833,0.382,0.3825,0.3818,0.3803,0.38,0.3796,0.3775,0.3778,0.3772,0.3761,0.3753,0.375,0.3748,0.3741,0.3738,0.3771,0.3771,0.377,0,0.3849,0.3837,0.384,0.3831,0.3827,0.3834,0.3822,0.3819,0.3812,0.3809,0.3814,0.3797,0.3794,0.3778,0.3774,0.377,0.3767,0.3772,0.375,0.3748,0.3746,0.3739,0.3736,0.377,0.377,0.377,0.377,0,0.3824,0.3815,0.3807,0.3801,0.3796,0.3786,0.3787,0.3782,0.3785,0.3785,0.3772,0.3769,0.3761,0.3757,0.3759,0.3742,0.3745,0.375,0.3759,0.3743,0.3736,0.3733,0.3769,0.3769,0.3769,0.3769,0,0,0.3793,0.379,0.3787,0.3785,0.3781,0.3775,0.3765,0.3758,0.3754,0.3749,0.3741,0.373,0.3735,0.373,0.3732,0.3725,0.3709,0.3731,0.3731,0.3727,0.369,0.3686,0.3683,0.3712,0.3711,0.3711,0.3691,0,0.3771,0.3755,0.3758,0.3742,0.3734,0.3741,0.3733,0.373,0.373,0.3723,0.3723,0.3715,0.3723,0.372,0.3713,0.3712,0.3702,0.3714,0.3704,0.3703,0.3704,0.3679,0.3674,0.3655,0.3688,0.3688,0.3687,0,0.3743,0.3739,0.3722,0.3721,0.3718,0.371,0.3705,0.3699,0.3695,0.3696,0.3692,0.3695,0.3686,0.3695,0.3682,0.369,0.3687,0.3686,0.3685,0.3683,0.3694,0.3676,0.3649,0.3646,0.3683,0.3684,0.3684,0,0.3722,0.3712,0.3701,0.3699,0.3697,0.3692,0.3691,0.3688,0.3684,0.368,0.3677,0.3671,0.3667,0.3663,0.3665,0.3671,0.3651,0.366,0.3651,0.3651,0.3645,0.3645,0.3616,0.3644,0.3644,0.3644,0.3644,0,0.3697,0.3687,0.3692,0.3685,0.3673,0.3678,0.3666,0.3666,0.3664,0.3657,0.3663,0.3656,0.3659,0.3653,0.3654,0.3643,0.3641,0.3641,0.3642,0.364,0.364,0.3637,0.3638,0.3643,0.3643,0.3643,0.3643,0,0.3671,0.3674,0.3663,0.3663,0.3663,0.3654,0.3654,0.3647,0.3649,0.364,0.3638,0.3639,0.3632,0.3634,0.3626,0.3627,0.3613,0.3615,0.3614,0.3614,0.3604,0.3605,0.3572,0.3568,0.3598,0.3598,0.3598,0,0.3655,0.3647,0.3647,0.3643,0.3642,0.3635,0.3632,0.3636,0.3632,0.3629,0.3623,0.3617,0.3612,0.36,0.36,0.3594,0.3596,0.3585,0.3595,0.3594,0.3595,0.3595,0.3595,0.3582,0.3582,0.3582,0.3581,0,0.3625,0.3628,0.3623,0.3618,0.3614,0.3611,0.3608,0.3605,0.3609,0.3604,0.3598,0.3594,0.3586,0.358,0.3575,0.3573,0.3578,0.3578,0.3576,0.3574,0.3573,0.3573,0.3608,0.3579,0.3579,0.3579,0.3579,0.3579,0.3603,0.3597,0.3596,0.359,0.3589,0.3587,0.3581,0.3582,0.3577,0.3572,0.3575,0.3567,0.3565,0.3559,0.3557,0.3551,0.3555,0.3551,0.355,0.3549,0.3547,0.3575,0.355,0.355,0.355,0.355,0.355,0,0.3574,0.3574,0.3569,0.3565,0.3561,0.3568,0.3565,0.3561,0.3554,0.3552,0.3548,0.3541,0.3535,0.3535,0.353,0.3525,0.3527,0.3523,0.3523,0.3523,0.3544,0.3547,0.3522,0.3522,0.3522,0.3522,0.3522,0.3522,0.3558,0.3547,0.355,0.3539,0.354,0.3533,0.3531,0.3529,0.3527,0.3519,0.3515,0.3516,0.3515,0.351,0.3505,0.3505,0.3502,0.3498,0.3499,0.3518,0.3521,0.3524,0.3526,0.3497,0.3497,0.3478,0.3478,0.3478]},{"header":{"parameterUnit":"m.s-1","parameterCategory":1,"la1":30.2991,"la2":30.254,"lo1":-89.0895,"lo2":-89.0444,"dy":0.0017,"dx":0.0017,"nx":28,"ny":28,"refTime":"2024-04-21T09:00:00:Z","depth":0,"parameterNumber":3,"parameterNumberName":"V-component_of_WINDS"},"data":[0,0,0,0,0,0,0,0,0,0,0,0,0,0,0,0,0,0,0,0,0,0,0,0,0,0,0,0,0,0,0,0,0,0,0,0,0,0,0,0,0,0,0,0,0,0,0,0,0,0,0,0,0,0,0,0,0,0,-7.2859,-7.286,0,-7.2975,-7.2977,-7.2978,-7.2908,-7.2905,-7.2902,-7.2898,-7.3011,-7.3017,-7.3023,0,0,0,0,0,0,0,0,0,0,0,0,0,-7.257,-7.2576,-7.2859,-7.286,-7.2862,-7.2975,-7.2977,-7.2978,-7.2909,-7.2905,-7.2901,-7.2897,-7.3009,-7.3016,-7.3023,0,0,0,0,0,0,0,0,0,0,0,0,0,-7.2692,-7.2578,-7.2859,-7.2841,-7.2841,-7.2975,-7.2977,-7.2979,-7.291,-7.2905,-7.29,-7.2895,-7.3006,-7.3015,-7.3024,-7.318,0,0,-7.3052,-7.3056,0,0,0,0,0,0,0,0,-7.2685,-7.2703,-7.2842,-7.2842,-7.2842,-7.2922,-7.2916,-7.3046,-7.2911,-7.2883,-7.2898,-7.2893,-7.2985,-7.2996,-7.3028,-7.3186,-7.319,-7.3053,-7.3059,-7.3063,-7.3065,0,0,0,0,0,0,0,-7.2677,-7.2697,-7.2905,-7.2844,-7.2844,-7.2825,-7.2837,-7.294,-7.296,-7.2885,-7.2881,-7.2896,-7.2984,-7.3019,-7.303,-7.3192,-7.3053,-7.3061,-7.3067,-7.307,-7.3483,-7.3488,0,0,0,0,0,0,-7.2671,-7.2691,-7.2901,-7.2908,-7.275,-7.2834,-7.2848,-7.2901,-7.2959,-7.2963,-7.29,-7.2892,-7.3006,-7.302,-7.3034,-7.322,-7.3062,-7.3071,-7.3076,-7.3478,-7.3484,-7.349,0,0,0,0,0,0,-7.2665,-7.269,-7.2896,-7.2798,-7.2823,-7.2845,-7.2906,-7.2906,-7.2942,-7.297,-7.2973,-7.2933,-7.3003,-7.3021,-7.3145,-7.3223,-7.3075,-7.3083,-7.3471,-7.348,-7.3487,-7.3594,0,0,0,0,0,0,-7.2657,-7.2688,-7.2749,-7.28,-7.2829,-7.3008,-7.2911,-7.2912,-7.2959,-7.295,-7.3002,-7.3006,-7.3,-7.3132,-7.3154,-7.3233,-7.3091,-7.3464,-7.3475,-7.3485,-7.3584,-7.3605,-7.3623,0,0,0,0,0,-7.2647,-7.2773,-7.2753,-7.2778,-7.2906,-7.3012,-7.3028,-7.3022,-7.2965,-7.3026,-7.3044,-7.3004,-7.3211,-7.3145,-7.3169,-7.3252,-7.3459,-7.3472,-7.3484,-7.3575,-7.3601,-7.3623,0,0,0,0,0,0,-7.2728,-7.2779,-7.2757,-7.2905,-7.2955,-7.3,-7.3076,-7.3049,-7.3115,-7.3103,-7.309,-7.3103,-7.3232,-7.3254,-7.318,-7.3406,-7.3326,-7.3344,-7.3387,-7.3412,-7.3431,-7.3423,-7.3098,0,0,0,0,0,-7.2764,-7.2848,-7.2888,-7.3014,-7.304,-7.3055,-7.3101,-7.3092,-7.3142,-7.3162,-7.3189,-7.3238,-7.3314,-7.3364,-7.3436,-7.3587,-7.3597,-7.3656,-7.3676,-7.3692,-7.3707,-7.3788,-7.3815,-7.3531,-7.3531,-7.353,0,0,-7.2837,-7.2876,-7.2929,-7.3031,-7.3069,-7.3155,-7.3073,-7.3167,-7.323,-7.3175,-7.3295,-7.3317,-7.337,-7.3509,-7.3571,-7.3531,-7.3788,-7.3708,-7.372,-7.3727,-7.3804,-7.3831,-7.3855,-7.3539,-7.3538,-7.3536,0,0,-7.3015,-7.3053,-7.3163,-7.3203,-7.3262,-7.3271,-7.3298,-7.3348,-7.3361,-7.3481,-7.3442,-7.3516,-7.3647,-7.3687,-7.3724,-7.3919,-7.3884,-7.3942,-7.4045,-7.4124,-7.4147,-7.4167,-7.4235,-7.426,-7.3957,-7.3958,-7.3958,0,-7.3098,-7.3228,-7.3222,-7.332,-7.3365,-7.3323,-7.3433,-7.3471,-7.355,-7.3581,-7.3537,-7.3701,-7.3734,-7.3881,-7.3929,-7.3961,-7.3989,-7.3936,-7.4145,-7.4164,-7.4183,-7.4248,-7.4274,-7.3964,-7.3964,-7.3963,-7.3962,0,-7.3327,-7.3418,-7.3499,-7.3579,-7.3633,-7.3737,-7.3744,-7.38,-7.3786,-7.3799,-7.3921,-7.396,-7.4038,-7.4073,-7.4059,-7.4218,-7.4192,-7.4146,-7.4065,-7.4217,-7.4278,-7.4303,-7.3974,-7.3971,-7.3969,-7.3968,0,0,-7.3558,-7.3635,-7.3665,-7.3701,-7.3764,-7.3833,-7.3933,-7.4013,-7.4061,-7.4116,-7.4199,-7.4312,-7.4271,-7.4314,-7.4304,-7.4374,-7.4525,-7.432,-7.4321,-7.4356,-7.4702,-7.4735,-7.4765,-7.4503,-7.4508,-7.4512,-7.4697,0,-7.3739,-7.3919,-7.3916,-7.4081,-7.4164,-7.4126,-7.4213,-7.426,-7.4275,-7.4346,-7.4361,-7.4442,-7.4382,-7.4407,-7.4475,-7.4493,-7.4594,-7.4479,-7.4579,-7.4582,-7.4566,-7.4797,-7.4832,-7.5005,-7.4721,-7.4725,-7.4728,0,-7.3975,-7.4041,-7.4216,-7.4267,-7.4302,-7.4381,-7.4454,-7.4523,-7.4575,-7.4581,-7.463,-7.461,-7.471,-7.4627,-7.4765,-7.4687,-7.4727,-7.4742,-7.4749,-7.4757,-7.4664,-7.481,-7.506,-7.5086,-7.4766,-7.4763,-7.476,0,-7.4125,-7.4258,-7.438,-7.4412,-7.4475,-7.4531,-7.456,-7.4608,-7.4656,-7.4718,-7.4749,-7.4822,-7.4862,-7.4918,-7.4917,-7.4857,-7.5056,-7.4973,-7.5062,-7.5063,-7.5105,-7.5102,-7.5365,-7.5133,-7.5133,-7.5132,-7.5131,0,-7.4328,-7.4435,-7.4448,-7.4523,-7.4642,-7.4638,-7.4755,-7.4778,-7.4821,-7.4898,-7.4868,-7.494,-7.4936,-7.5008,-7.5008,-7.5122,-7.514,-7.5146,-7.5145,-7.5149,-7.5148,-7.5174,-7.5162,-7.5139,-7.5137,-7.5136,-7.5135,0,-7.4515,-7.4529,-7.4659,-7.4709,-7.4724,-7.481,-7.4851,-7.4921,-7.4934,-7.5032,-7.5054,-7.5074,-7.5158,-7.5164,-7.526,-7.526,-7.5398,-7.5383,-7.5381,-7.5378,-7.5466,-7.5458,-7.5754,-7.5792,-7.5536,-7.5539,-7.5541,0,-7.4643,-7.4726,-7.4786,-7.4837,-7.4869,-7.4951,-7.5001,-7.4999,-7.5051,-7.5118,-7.518,-7.5262,-7.5327,-7.5463,-7.5484,-7.5557,-7.5544,-7.5643,-7.5555,-7.5556,-7.5545,-7.554,-7.5547,-7.5659,-7.5662,-7.5665,-7.5667,0,-7.4869,-7.4872,-7.4946,-7.5023,-7.5084,-7.5144,-7.5199,-7.5242,-7.5247,-7.5307,-7.5394,-7.5445,-7.5545,-7.5626,-7.5698,-7.5725,-7.5697,-7.5695,-7.5719,-7.5723,-7.5718,-7.5722,-7.5427,-7.5687,-7.5685,-7.5684,-7.5683,-7.5682,-7.503,-7.5102,-7.5156,-7.5239,-7.5282,-7.5335,-7.5403,-7.5426,-7.5499,-7.5582,-7.5576,-7.5673,-7.5722,-7.5817,-7.5849,-7.5923,-7.5889,-7.5924,-7.5933,-7.5942,-7.5951,-7.5708,-7.5936,-7.5935,-7.5935,-7.5934,-7.5934,0,-7.5253,-7.5287,-7.5364,-7.5444,-7.551,-7.548,-7.5541,-7.5597,-7.5683,-7.5733,-7.5798,-7.5898,-7.5977,-7.6006,-7.6082,-7.6135,-7.6124,-7.6155,-7.6151,-7.6157,-7.5977,-7.5948,-7.6163,-7.6163,-7.6163,-7.6163,-7.6163,-7.6163,-7.5377,-7.5497,-7.5507,-7.5647,-7.5678,-7.5775,-7.5812,-7.586,-7.59,-7.6014,-7.608,-7.6099,-7.614,-7.6219,-7.629,-7.6296,-7.6325,-7.6362,-7.6362,-7.6193,-7.617,-7.6148,-7.6121,-7.6368,-7.6369,-7.6536,-7.6538,-7.6539]}]]